| time (UTC) | temp F | wind direction | speed MPH | gust MPH | rain 1hr in | rain 24hr in | rain mn in | humidity % | barometer mb |
| 20260903161344 | 81 | 359 | 7.0 | 12.0 | 0.00 | 0.00 | 0.00 | ||
| 20260903160835 | 80 | 0 | 6.0 | 12.0 | 0.00 | 0.00 | 0.00 | ||
| 20260903160336 | 80 | 352 | 8.0 | 12.0 | 0.00 | 0.00 | 0.00 | ||
| 20260903155836 | 80 | 357 | 6.0 | 11.0 | 0.00 | 0.00 | 0.00 | ||
| 20260903155336 | 80 | 358 | 6.0 | 15.0 | 0.00 | 0.00 | 0.00 | ||
| 20260903154342 | 79 | 0 | 9.0 | 13.0 | 0.00 | 0.00 | 0.00 | ||
| 20260903153833 | 79 | 351 | 5.0 | 12.0 | 0.00 | 0.00 | 0.00 | ||
| 20260903153335 | 79 | 354 | 7.0 | 11.0 | 0.00 | 0.00 | 0.00 | ||
| 20260903152837 | 78 | 341 | 7.0 | 11.0 | 0.00 | 0.00 | 0.00 | ||
| 20260903152338 | 78 | 358 | 7.0 | 12.0 | 0.00 | 0.00 | 0.00 | ||
| 20260903151821 | 78 | 0 | 7.0 | 12.0 | 0.00 | 0.00 | 0.00 | ||
| 20260903150838 | 78 | 356 | 3.0 | 7.0 | 0.00 | 0.00 | 0.00 | ||
| 20260903150317 | 77 | 359 | 3.0 | 6.0 | 0.00 | 0.00 | 0.00 | ||
| 20260903145821 | 77 | 0 | 1.0 | 3.0 | 0.00 | 0.00 | 0.00 | ||
| 20260903144828 | 77 | 0 | 0.0 | 2.0 | 0.00 | 0.00 | 0.00 | ||
| 20260903143824 | 76 | 0 | 0.0 | 3.0 | 0.00 | 0.00 | 0.00 | ||
| 20260903143325 | 76 | 0 | 0.0 | 7.0 | 0.00 | 0.00 | 0.00 | ||
| 20260903142826 | 76 | 335 | 4.0 | 7.0 | 0.00 | 0.00 | 0.00 | ||
| 20260903142326 | 76 | 0 | 1.0 | 4.0 | 0.00 | 0.00 | 0.00 | ||
| 20260903141829 | 76 | 0 | 2.0 | 3.0 | 0.00 | 0.00 | 0.00 | ||
| 20260903141330 | 76 | 0 | 2.0 | 5.0 | 0.00 | 0.00 | 0.00 | ||
| 20260903140821 | 76 | 0 | 2.0 | 6.0 | 0.00 | 0.00 | 0.00 | ||
| 20260903140324 | 76 | 340 | 2.0 | 5.0 | 0.00 | 0.00 | 0.00 | ||
| 20260903135828 | 76 | 0 | 4.0 | 5.0 | 0.00 | 0.00 | 0.00 | ||
| 20260903135329 | 76 | 0 | 0.0 | 5.0 | 0.00 | 0.00 | 0.00 | ||
| 20260903134830 | 76 | 272 | 3.0 | 7.0 | 0.00 | 0.00 | 0.00 | ||
| 20260903134332 | 76 | 0 | 3.0 | 9.0 | 0.00 | 0.00 | 0.00 | ||
| 20260903133825 | 76 | 358 | 4.0 | 10.0 | 0.00 | 0.00 | 0.00 | ||
| 20260903132830 | 76 | 359 | 5.0 | 12.0 | 0.00 | 0.00 | 0.00 | ||
| 20260903132331 | 76 | 358 | 5.0 | 12.0 | 0.00 | 0.00 | 0.00 | ||
| 20260903131834 | 76 | 342 | 7.0 | 12.0 | 0.00 | 0.00 | 0.00 | ||
| 20260903131337 | 76 | 353 | 4.0 | 11.0 | 0.00 | 0.00 | 0.00 | ||
| 20260903130829 | 76 | 357 | 6.0 | 11.0 | 0.00 | 0.00 | 0.00 | ||
| 20260903130330 | 76 | 346 | 7.0 | 11.0 | 0.00 | 0.00 | 0.00 | ||
| 20260903125827 | 76 | 358 | 4.0 | 11.0 | 0.00 | 0.00 | 0.00 | ||
| 20260903125329 | 76 | 0 | 2.0 | 8.0 | 0.00 | 0.00 | 0.00 | ||
| 20260903124831 | 76 | 350 | 4.0 | 8.0 | 0.00 | 0.00 | 0.00 | ||
| 20260903123833 | 76 | 0 | 5.0 | 6.0 | 0.00 | 0.00 | 0.00 | ||
| 20260903123333 | 76 | 0 | 3.0 | 6.0 | 0.00 | 0.00 | 0.00 | ||
| 20260903122835 | 76 | 0 | 3.0 | 6.0 | 0.00 | 0.00 | 0.00 | ||
| 20260903122335 | 76 | 229 | 3.0 | 6.0 | 0.00 | 0.00 | 0.00 | ||
| 20260903121835 | 77 | 0 | 4.0 | 6.0 | 0.00 | 0.00 | 0.00 | ||
| 20260903121337 | 77 | 226 | 2.0 | 8.0 | 0.00 | 0.00 | 0.00 | ||
| 20260903120830 | 77 | 101 | 2.0 | 8.0 | 0.00 | 0.00 | 0.00 | ||
| 20260903120331 | 77 | 355 | 3.0 | 8.0 | 0.00 | 0.00 | 0.00 | ||
| 20260903115833 | 77 | 0 | 3.0 | 7.0 | 0.00 | 0.00 | 0.00 | ||
| 20260903115332 | 77 | 0 | 3.0 | 7.0 | 0.00 | 0.00 | 0.00 | ||
| 20260903114834 | 78 | 359 | 1.0 | 6.0 | 0.00 | 0.00 | 0.00 | ||
| 20260903114334 | 78 | 0 | 2.0 | 10.0 | 0.00 | 0.00 | 0.00 | ||
| 20260903113827 | 78 | 348 | 5.0 | 12.0 | 0.00 | 0.00 | 0.00 | ||
| 20260903113330 | 78 | 0 | 8.0 | 13.0 | 0.00 | 0.00 | 0.00 | ||
| 20260903112830 | 78 | 0 | 6.0 | 13.0 | 0.00 | 0.00 | 0.00 | ||
| 20260903112329 | 78 | 357 | 6.0 | 12.0 | 0.00 | 0.00 | 0.00 | ||
| 20260903111832 | 78 | 0 | 7.0 | 12.0 | 0.00 | 0.00 | 0.00 | ||
| 20260903111332 | 78 | 355 | 6.0 | 11.0 | 0.00 | 0.00 | 0.00 | ||
| 20260903110824 | 78 | 351 | 6.0 | 11.0 | 0.00 | 0.00 | 0.00 | ||
| 20260903110338 | 78 | 358 | 6.0 | 11.0 | 0.00 | 0.00 | 0.00 | ||
| 20260903105820 | 78 | 0 | 6.0 | 11.0 | 0.00 | 0.00 | 0.00 | ||
| 20260903105322 | 79 | 0 | 4.0 | 8.0 | 0.00 | 0.00 | 0.00 | ||
| 20260903104844 | 79 | 333 | 5.0 | 8.0 | 0.00 | 0.00 | 0.00 | ||
| 20260903104317 | 79 | 357 | 6.0 | 8.0 | 0.00 | 0.00 | 0.00 | ||
| 20260903103821 | 79 | 32 | 3.0 | 7.0 | 0.00 | 0.00 | 0.00 | ||
| 20260903103339 | 79 | 358 | 4.0 | 6.0 | 0.00 | 0.00 | 0.00 | ||
| 20260903102822 | 79 | 83 | 4.0 | 9.0 | 0.00 | 0.00 | 0.00 | ||
| 20260903102323 | 79 | 0 | 4.0 | 9.0 | 0.00 | 0.00 | 0.00 | ||
| 20260903101825 | 79 | 358 | 5.0 | 10.0 | 0.00 | 0.00 | 0.00 | ||
| 20260903101326 | 79 | 0 | 5.0 | 10.0 | 0.00 | 0.00 | 0.00 | ||
| 20260903100820 | 79 | 18 | 5.0 | 9.0 | 0.00 | 0.00 | 0.00 | ||
| 20260903100319 | 79 | 355 | 4.0 | 8.0 | 0.00 | 0.00 | 0.00 | ||
| 20260903095819 | 80 | 350 | 2.0 | 5.0 | 0.00 | 0.00 | 0.00 | ||
| 20260903094830 | 80 | 0 | 3.0 | 6.0 | 0.00 | 0.00 | 0.00 | ||
| 20260903094333 | 80 | 3 | 3.0 | 6.0 | 0.00 | 0.00 | 0.00 | ||
| 20260903093327 | 80 | 0 | 4.0 | 13.0 | 0.00 | 0.00 | 0.00 | ||
| 20260903092829 | 80 | 0 | 4.0 | 15.0 | 0.00 | 0.00 | 0.00 | ||
| 20260903092327 | 80 | 352 | 8.0 | 15.0 | 0.00 | 0.00 | 0.00 | ||
| 20260903091830 | 81 | 0 | 8.0 | 15.0 | 0.00 | 0.00 | 0.00 | ||
| 20260903090830 | 81 | 357 | 7.0 | 14.0 | 0.00 | 0.00 | 0.00 | ||
| 20260903090331 | 81 | 0 | 7.0 | 14.0 | 0.00 | 0.00 | 0.00 | ||
| 20260903085334 | 81 | 356 | 7.0 | 13.0 | 0.00 | 0.00 | 0.00 | ||
| 20260903084833 | 81 | 351 | 6.0 | 13.0 | 0.00 | 0.00 | 0.00 | ||
| 20260903084335 | 81 | 0 | 4.0 | 11.0 | 0.00 | 0.00 | 0.00 | ||
| 20260903083331 | 82 | 0 | 5.0 | 13.0 | 0.00 | 0.00 | 0.00 | ||
| 20260903082834 | 82 | 0 | 4.0 | 13.0 | 0.00 | 0.00 | 0.00 | ||
| 20260903082335 | 82 | 0 | 7.0 | 10.0 | 0.00 | 0.00 | 0.00 | ||
| 20260903080822 | 82 | 0 | 7.0 | 11.0 | 0.00 | 0.00 | 0.00 | ||
| 20260903080335 | 82 | 357 | 7.0 | 13.0 | 0.00 | 0.00 | 0.00 | ||
| 20260903075835 | 83 | 0 | 5.0 | 13.0 | 0.00 | 0.00 | 0.00 | ||
| 20260903075336 | 83 | 358 | 6.0 | 13.0 | 0.00 | 0.00 | 0.00 | ||
| 20260903074823 | 83 | 0 | 8.0 | 11.0 | 0.00 | 0.00 | 0.00 | ||
| 20260903074344 | 83 | 0 | 7.0 | 11.0 | 0.00 | 0.00 | 0.00 | ||
| 20260903073836 | 83 | 0 | 7.0 | 17.0 | 0.00 | 0.00 | 0.00 | ||
| 20260903072820 | 83 | 359 | 12.0 | 17.0 | 0.00 | 0.00 | 0.00 | ||
| 20260903072321 | 83 | 0 | 8.0 | 15.0 | 0.00 | 0.00 | 0.00 | ||
| 20260903071826 | 83 | 0 | 9.0 | 15.0 | 0.00 | 0.00 | 0.00 | ||
| 20260903071329 | 83 | 0 | 10.0 | 15.0 | 0.00 | 0.00 | 0.00 | ||
| 20260903070821 | 83 | 359 | 9.0 | 16.0 | 0.00 | 0.00 | 0.00 | ||
| 20260903070321 | 83 | 357 | 10.0 | 16.0 | 0.00 | 0.00 | 0.00 | ||
| 20260903065821 | 83 | 0 | 10.0 | 16.0 | 0.00 | 0.00 | 0.00 | ||
| 20260903064826 | 83 | 337 | 7.0 | 14.0 | 0.00 | 0.00 | 0.00 | ||
| 20260903064330 | 83 | 348 | 9.0 | 14.0 | 0.00 | 0.00 | 0.00 | ||
| 20260903063824 | 84 | 357 | 8.0 | 12.0 | 0.00 | 0.00 | 0.00 | ||
| 20260903062833 | 84 | 344 | 6.0 | 13.0 | 0.00 | 0.00 | 0.00 | ||
| 20260903062334 | 84 | 359 | 8.0 | 13.0 | 0.00 | 0.00 | 0.00 | ||
| 20260903061836 | 84 | 356 | 6.0 | 13.0 | 0.00 | 0.00 | 0.00 | ||
| 20260903061338 | 84 | 355 | 5.0 | 9.0 | 0.00 | 0.00 | 0.00 | ||
| 20260903060830 | 84 | 359 | 5.0 | 10.0 | 0.00 | 0.00 | 0.00 | ||
| 20260903060330 | 84 | 358 | 4.0 | 10.0 | 0.00 | 0.00 | 0.00 | ||
| 20260903055828 | 84 | 343 | 5.0 | 9.0 | 0.00 | 0.00 | 0.00 | ||
| 20260903055331 | 84 | 356 | 6.0 | 9.0 | 0.00 | 0.00 | 0.00 | ||
| 20260903054829 | 84 | 331 | 4.0 | 8.0 | 0.00 | 0.00 | 0.00 | ||
| 20260903053827 | 85 | 354 | 6.0 | 9.0 | 0.00 | 0.00 | 0.00 | ||
| 20260903053327 | 85 | 359 | 6.0 | 9.0 | 0.00 | 0.00 | 0.00 | ||
| 20260903052830 | 85 | 0 | 5.0 | 8.0 | 0.00 | 0.00 | 0.00 | ||
| 20260903051338 | 86 | 354 | 5.0 | 11.0 | 0.00 | 0.00 | 0.00 | ||
| 20260903050832 | 86 | 0 | 6.0 | 11.0 | 0.00 | 0.00 | 0.00 | ||
| 20260903050334 | 86 | 0 | 6.0 | 11.0 | 0.00 | 0.00 | 0.00 | ||
| 20260903045337 | 86 | 358 | 9.0 | 17.0 | 0.00 | 0.00 | 0.00 | ||
| 20260903044837 | 86 | 359 | 9.0 | 17.0 | 0.00 | 0.00 | 0.00 | ||
| 20260903044340 | 86 | 351 | 8.0 | 19.0 | 0.00 | 0.00 | 0.00 | ||
| 20260903043830 | 86 | 358 | 7.0 | 19.0 | 0.00 | 0.00 | 0.00 | ||
| 20260903043332 | 86 | 0 | 9.0 | 16.0 | 0.00 | 0.00 | 0.00 | ||
| 20260903042835 | 86 | 358 | 10.0 | 16.0 | 0.00 | 0.00 | 0.00 | ||
| 20260903042336 | 86 | 0 | 7.0 | 13.0 | 0.00 | 0.00 | 0.00 | ||
| 20260903041837 | 87 | 0 | 6.0 | 13.0 | 0.00 | 0.00 | 0.00 | ||
| 20260903041339 | 87 | 357 | 5.0 | 10.0 | 0.00 | 0.00 | 0.00 | ||
| 20260903040831 | 87 | 0 | 5.0 | 10.0 | 0.00 | 0.00 | 0.00 | ||
| 20260903040332 | 87 | 351 | 5.0 | 11.0 | 0.00 | 0.00 | 0.00 | ||
| 20260903035819 | 87 | 355 | 7.0 | 11.0 | 0.00 | 0.00 | 0.00 | ||
| 20260903035321 | 87 | 31 | 5.0 | 12.0 | 0.00 | 0.00 | 0.00 | ||
| 20260903034825 | 87 | 317 | 8.0 | 12.0 | 0.00 | 0.00 | 0.00 | ||
| 20260903032824 | 88 | 0 | 8.0 | 14.0 | 0.00 | 0.00 | 0.00 | ||
| 20260903031827 | 88 | 0 | 6.0 | 15.0 | 0.00 | 0.00 | 0.00 | ||
| 20260903031328 | 88 | 356 | 9.0 | 15.0 | 0.00 | 0.00 | 0.00 | ||
| 20260903030820 | 89 | 359 | 7.0 | 16.0 | 0.00 | 0.00 | 0.00 | ||
| 20260903030322 | 89 | 350 | 7.0 | 17.0 | 0.00 | 0.00 | 0.00 | ||
| 20260903025824 | 89 | 359 | 9.0 | 18.0 | 0.00 | 0.00 | 0.00 | ||
| 20260903025327 | 89 | 359 | 8.0 | 18.0 | 0.00 | 0.00 | 0.00 | ||
| 20260903024829 | 89 | 353 | 10.0 | 16.0 | 0.00 | 0.00 | 0.00 | ||
| 20260903024329 | 89 | 357 | 10.0 | 16.0 | 0.00 | 0.00 | 0.00 | ||
| 20260903023825 | 90 | 0 | 12.0 | 16.0 | 0.00 | 0.00 | 0.00 | ||
| 20260903023328 | 90 | 358 | 6.0 | 15.0 | 0.00 | 0.00 | 0.00 | ||
| 20260903022832 | 90 | 358 | 9.0 | 14.0 | 0.00 | 0.00 | 0.00 | ||
| 20260903021836 | 91 | 14 | 9.0 | 16.0 | 0.00 | 0.00 | 0.00 | ||
| 20260903021338 | 91 | 353 | 9.0 | 16.0 | 0.00 | 0.00 | 0.00 | ||
| 20260903020831 | 91 | 353 | 7.0 | 19.0 | 0.00 | 0.00 | 0.00 | ||
| 20260903020332 | 92 | 356 | 12.0 | 19.0 | 0.00 | 0.00 | 0.00 | ||
| 20260903015833 | 92 | 354 | 9.0 | 18.0 | 0.00 | 0.00 | 0.00 | ||
| 20260903015333 | 93 | 357 | 12.0 | 18.0 | 0.00 | 0.00 | 0.00 | ||
| 20260903014833 | 93 | 359 | 9.0 | 15.0 | 0.00 | 0.00 | 0.00 | ||
| 20260903014338 | 93 | 0 | 7.0 | 17.0 | 0.00 | 0.00 | 0.00 | ||
| 20260903013831 | 94 | 358 | 11.0 | 17.0 | 0.00 | 0.00 | 0.00 | ||
| 20260903013333 | 94 | 359 | 9.0 | 16.0 | 0.00 | 0.00 | 0.00 | ||
| 20260903012838 | 94 | 0 | 6.0 | 16.0 | 0.00 | 0.00 | 0.00 | ||
| 20260903012321 | 94 | 353 | 9.0 | 19.0 | 0.00 | 0.00 | 0.00 | ||
| 20260903011347 | 95 | 357 | 10.0 | 19.0 | 0.00 | 0.00 | 0.00 | ||
| 20260903005827 | 95 | 0 | 10.0 | 19.0 | 0.00 | 0.00 | 0.00 | ||
| 20260903005327 | 95 | 356 | 12.0 | 22.0 | 0.00 | 0.00 | 0.00 | ||
| 20260903004828 | 96 | 0 | 11.0 | 22.0 | 0.00 | 0.00 | 0.00 | ||
| 20260903004332 | 95 | 354 | 10.0 | 30.0 | 0.00 | 0.00 | 0.00 | ||
| 20260903003821 | 95 | 351 | 10.0 | 30.0 | 0.00 | 0.00 | 0.00 | ||
| 20260903003340 | 95 | 347 | 11.0 | 20.0 | 0.00 | 0.00 | 0.00 | ||
| 20260903002839 | 95 | 0 | 10.0 | 20.0 | 0.00 | 0.00 | 0.00 | ||
| 20260903002320 | 95 | 0 | 12.0 | 19.0 | 0.00 | 0.00 | 0.00 | ||
| 20260903001821 | 95 | 356 | 11.0 | 19.0 | 0.00 | 0.00 | 0.00 | ||
| 20260903001342 | 95 | 357 | 10.0 | 20.0 | 0.00 | 0.00 | 0.00 | ||
| 20260903000835 | 95 | 359 | 12.0 | 22.0 | 0.00 | 0.00 | 0.00 | ||
| 20260903000335 | 95 | 354 | 11.0 | 22.0 | 0.00 | 0.00 | 0.00 | ||
| 20260902235834 | 95 | 358 | 14.0 | 21.0 | 0.00 | 0.00 | 0.00 | ||
| 20260902235333 | 96 | 352 | 13.0 | 25.0 | 0.00 | 0.00 | 0.00 | ||
| 20260902234833 | 96 | 342 | 16.0 | 25.0 | 0.00 | 0.00 | 0.00 | ||
| 20260902234334 | 96 | 359 | 12.0 | 22.0 | 0.00 | 0.00 | 0.00 | ||
| 20260902232825 | 96 | 350 | 18.0 | 27.0 | 0.00 | 0.00 | 0.00 | ||
| 20260902232324 | 96 | 353 | 9.0 | 19.0 | 0.00 | 0.00 | 0.00 | ||
| 20260902231826 | 96 | 358 | 6.0 | 16.0 | 0.00 | 0.00 | 0.00 | ||
| 20260902230823 | 96 | 359 | 10.0 | 16.0 | 0.00 | 0.00 | 0.00 | ||
| 20260902230322 | 96 | 0 | 6.0 | 16.0 | 0.00 | 0.00 | 0.00 | ||
| 20260902225823 | 96 | 354 | 8.0 | 22.0 | 0.00 | 0.00 | 0.00 | ||
| 20260902225325 | 96 | 353 | 9.0 | 22.0 | 0.00 | 0.00 | 0.00 | ||
| 20260902224831 | 96 | 0 | 7.0 | 16.0 | 0.00 | 0.00 | 0.00 | ||
| 20260902224334 | 96 | 0 | 6.0 | 14.0 | 0.00 | 0.00 | 0.00 | ||
| 20260902223825 | 96 | 359 | 7.0 | 16.0 | 0.00 | 0.00 | 0.00 | ||
| 20260902223325 | 96 | 355 | 9.0 | 16.0 | 0.00 | 0.00 | 0.00 | ||
| 20260902222826 | 96 | 357 | 7.0 | 13.0 | 0.00 | 0.00 | 0.00 | ||
| 20260902222330 | 96 | 0 | 7.0 | 26.0 | 0.00 | 0.00 | 0.00 | ||
| 20260902221832 | 96 | 356 | 10.0 | 26.0 | 0.00 | 0.00 | 0.00 | ||
| 20260902221332 | 96 | 0 | 11.0 | 20.0 | 0.00 | 0.00 | 0.00 | ||
| 20260902220826 | 96 | 0 | 8.0 | 18.0 | 0.00 | 0.00 | 0.00 | ||
| 20260902220326 | 96 | 348 | 8.0 | 21.0 | 0.00 | 0.00 | 0.00 | ||
| 20260902215828 | 96 | 0 | 12.0 | 21.0 | 0.00 | 0.00 | 0.00 | ||
| 20260902215328 | 96 | 355 | 15.0 | 21.0 | 0.00 | 0.00 | 0.00 | ||
| 20260902214826 | 96 | 356 | 10.0 | 23.0 | 0.00 | 0.00 | 0.00 | ||
| 20260902213825 | 96 | 359 | 9.0 | 19.0 | 0.00 | 0.00 | 0.00 | ||
| 20260902213325 | 96 | 359 | 10.0 | 22.0 | 0.00 | 0.00 | 0.00 | ||
| 20260902212825 | 96 | 356 | 14.0 | 22.0 | 0.00 | 0.00 | 0.00 | ||
| 20260902212324 | 96 | 347 | 9.0 | 23.0 | 0.00 | 0.00 | 0.00 | ||
| 20260902211824 | 96 | 359 | 11.0 | 23.0 | 0.00 | 0.00 | 0.00 | ||
| 20260902210822 | 96 | 359 | 12.0 | 23.0 | 0.00 | 0.00 | 0.00 | ||
| 20260902205825 | 96 | 355 | 7.0 | 21.0 | 0.00 | 0.00 | 0.00 | ||
| 20260902205327 | 96 | 353 | 12.0 | 21.0 | 0.00 | 0.00 | 0.00 | ||
| 20260902204828 | 96 | 353 | 11.0 | 22.0 | 0.00 | 0.00 | 0.00 | ||
| 20260902204328 | 96 | 357 | 11.0 | 22.0 | 0.00 | 0.00 | 0.00 | ||
| 20260902203821 | 95 | 356 | 9.0 | 22.0 | 0.00 | 0.00 | 0.00 | ||
| 20260902202825 | 96 | 359 | 13.0 | 20.0 | 0.00 | 0.00 | 0.00 | ||
| 20260902201829 | 95 | 341 | 13.0 | 23.0 | 0.00 | 0.00 | 0.00 | ||
| 20260902201336 | 95 | 359 | 13.0 | 23.0 | 0.00 | 0.00 | 0.00 | ||
| 20260902200827 | 95 | 0 | 7.0 | 19.0 | 0.00 | 0.00 | 0.00 | ||
| 20260902200328 | 95 | 359 | 11.0 | 19.0 | 0.00 | 0.00 | 0.00 | ||
| 20260902195832 | 95 | 355 | 12.0 | 21.0 | 0.00 | 0.00 | 0.00 | ||
| 20260902195331 | 95 | 343 | 14.0 | 23.0 | 0.00 | 0.00 | 0.00 | ||
| 20260902194830 | 94 | 350 | 13.0 | 23.0 | 0.00 | 0.00 | 0.00 | ||
| 20260902193825 | 94 | 358 | 14.0 | 21.0 | 0.00 | 0.00 | 0.00 | ||
| 20260902193325 | 94 | 358 | 8.0 | 18.0 | 0.00 | 0.00 | 0.00 | ||
| 20260902192822 | 94 | 359 | 8.0 | 16.0 | 0.00 | 0.00 | 0.00 | ||
| 20260902191830 | 94 | 338 | 8.0 | 18.0 | 0.00 | 0.00 | 0.00 | ||
| 20260902191332 | 93 | 356 | 6.0 | 16.0 | 0.00 | 0.00 | 0.00 | ||
| 20260902190826 | 93 | 355 | 13.0 | 16.0 | 0.00 | 0.00 | 0.00 | ||
| 20260902190328 | 93 | 357 | 8.0 | 19.0 | 0.00 | 0.00 | 0.00 | ||
| 20260902185834 | 93 | 349 | 8.0 | 19.0 | 0.00 | 0.00 | 0.00 | ||
| 20260902185334 | 93 | 358 | 5.0 | 14.0 | 0.00 | 0.00 | 0.00 | ||
| 20260902184833 | 92 | 353 | 7.0 | 14.0 | 0.00 | 0.00 | 0.00 | ||
| 20260902184336 | 92 | 355 | 5.0 | 14.0 | 0.00 | 0.00 | 0.00 | ||
| 20260902183828 | 92 | 356 | 5.0 | 11.0 | 0.00 | 0.00 | 0.00 | ||
| 20260902183329 | 91 | 0 | 4.0 | 13.0 | 0.00 | 0.00 | 0.00 | ||
| 20260902182831 | 91 | 359 | 7.0 | 13.0 | 0.00 | 0.00 | 0.00 | ||
| 20260902182331 | 91 | 0 | 7.0 | 12.0 | 0.00 | 0.00 | 0.00 | ||
| 20260902181831 | 91 | 357 | 6.0 | 13.0 | 0.00 | 0.00 | 0.00 | ||
| 20260902181332 | 90 | 356 | 9.0 | 14.0 | 0.00 | 0.00 | 0.00 | ||
| 20260902180824 | 90 | 355 | 8.0 | 15.0 | 0.00 | 0.00 | 0.00 | ||
| 20260902180325 | 90 | 339 | 11.0 | 15.0 | 0.00 | 0.00 | 0.00 | ||
| 20260902175826 | 90 | 345 | 9.0 | 13.0 | 0.00 | 0.00 | 0.00 | ||
| 20260902175334 | 89 | 354 | 9.0 | 13.0 | 0.00 | 0.00 | 0.00 | ||
| 20260902174835 | 89 | 2 | 6.0 | 19.0 | 0.00 | 0.00 | 0.00 | ||
| 20260902173831 | 88 | 353 | 9.0 | 16.0 | 0.00 | 0.00 | 0.00 | ||
| 20260902172835 | 88 | 359 | 10.0 | 15.0 | 0.00 | 0.00 | 0.00 | ||
| 20260902172320 | 88 | 0 | 9.0 | 15.0 | 0.00 | 0.00 | 0.00 | ||
| 20260902171820 | 87 | 359 | 6.0 | 16.0 | 0.00 | 0.00 | 0.00 | ||
| 20260902171342 | 87 | 358 | 10.0 | 16.0 | 0.00 | 0.00 | 0.00 | ||
| 20260902170833 | 87 | 0 | 7.0 | 16.0 | 0.00 | 0.00 | 0.00 | ||
| 20260902170335 | 86 | 0 | 10.0 | 16.0 | 0.00 | 0.00 | 0.00 | ||
| 20260902165836 | 86 | 359 | 8.0 | 13.0 | 0.00 | 0.00 | 0.00 | ||
| 20260902165335 | 85 | 350 | 9.0 | 14.0 | 0.00 | 0.00 | 0.00 | ||
| 20260902164834 | 85 | 358 | 6.0 | 16.0 | 0.00 | 0.00 | 0.00 | ||
| 20260902164338 | 85 | 351 | 5.0 | 16.0 | 0.00 | 0.00 | 0.00 | ||
| 20260902163337 | 84 | 357 | 6.0 | 13.0 | 0.00 | 0.00 | 0.00 | ||
| 20260902162837 | 83 | 356 | 8.0 | 14.0 | 0.00 | 0.00 | 0.00 | ||
| 20260902162319 | 83 | 358 | 6.0 | 16.0 | 0.00 | 0.00 | 0.00 |